千帆星座-63 (QIANFAN-63)

导读

QIANFAN-63 是中国“北斗”卫星导航系统的重要组成部分,主要用于提供高精度定位、导航和授时服务。该卫星由中国自主研发,具备先进的信号传输和抗干扰能力,提升了北斗系统在全球范围内的覆盖与稳定性。QIANFAN-63 的成功发射和运行,进一步增强了中国在卫星导航领域的自主可控能力,为交通运输、应急救援、农业、通信等多个行业提供了可靠的技术支持,推动了国家空间信息基础设施的建设与发展。

基本信息
目录编号:
62793
目录名称:
QIANFAN-63
国际标识:
2025-016J
轨道中心:
EARTH
卫星名称:
千帆星座-63
卫星全名:
千帆星座-63 (QIANFAN-63)
卫星状态:
在轨 (已飞行505 天)
发射日期:
2025-01-23 UTC
国别 :
中国 (CN)
星等 :
--
轨道信息
数据来源 国际轨道数据 AOE轨道数据
星历时间 2026-06-12T15:07:21+0800
13小时前
查看轨道信息
2026-06-11T04:00:00+0800
2天前
查看轨道信息
半长轴 7446.685km 7446.665km
偏心率 0.0015565 0.0014976
轨道倾角 88.974° 88.973°
近地点辐角 176.066° 180.147°
升交点赤经 84.232° 84.383°
平近点角 184.061° 266.626°
近地点 1056.957km 1057.375km
远地点 1080.139km 1079.681km
周期 106.587分钟 106.587分钟
每日圈数 13.510094 13.510147
详细信息
卫星平台:
63
覆盖范围:
全球
运营商:
上海垣信卫星科技有限公司
运营商所在国:
中国
使用方式:
暂无
卫星简介
千帆星座,也被称为“G60星链”计划,是中国版“星链”的重要组成部分,旨在打造一个由1.4万多颗低轨宽频多媒体卫星构成的庞大星座。千帆星座计划由上海垣信卫星科技有限公司负责实施,于2023年启动建设。该项目是我国第二个低轨卫星大星座,旨在通过构建庞大的卫星网络,为全球用户提供高质量的通信和宽带互联网服务。
2D轨道图
3D轨道图
轨道高度分析图
轨道倾角分析图
轨道综合分析图
查看轨道综合分析图